COSMOS 2251 DEB, 35670

Orbit data source: Space-Track

COSMOS 2251 DEB, 35670 is space debris in LEO originally from a launch on Wed, 16 Jun 1993 UTC launched from the Plesetsk Missile And Space Complex (PKMTR). The debris from Iridium 33, an American commercial communications satellite, has been tracked extensively since its accidental collision with the defunct Russian satellite Cosmos 2251 in 2009. This event, occurring at high speed in low Earth orbit (LEO), generated thousands of pieces of space debris, significantly increasing the risk of further collisions. The Iridium 33 debris cloud has impacted space traffic management and orbital debris mitigation strategies, making it a subject of ongoing study in space situational awareness.

Loading next visibility...
Identifier
35670, 1993-036APM
Orbit
LEO
Country
Flag of CISCIS
Related business
Manufacturer
Unknown
Mission
Spacecraft
Bus & Motor
Unknown
Mass
Unknown
Launch date (UTC)
1993-06-16 (33 years ago)
Launch vehicle
Unknown
Launch site
Plesetsk Missile And Space Complex (PKMTR)
Object type
Payload
Rocket body
Debris
Shape & HBR
Unknown shape, 0.1 m
Radar Cross Section
Small (<0.1 m²)

Expand to show TLE details & history
Last TLE update: 2 days ago

TLE from 2 days ago
0 COSMOS 2251 DEB
1 35670U 93036APM 26121.79788120  .00014811  00000-0  12167-2 0  9990
2 35670  73.8902 138.8975 0029191  67.9854 292.4428 14.98853863898229
Epoch: 2026-05-01T19:08Z
TLE epoch observation values (Epoch: 2026-05-01T19:08:56.935Z)
Latitude
-0.00002°
Longitude
-8.06471°
Altitude
565.42 km
Speed
7.583 km/s
True Right ascension
09h 15m 35s
True Declination
0° 00' 00"
Sunlit
Object was in daylight at epoch
Visualization orbit readout
Latitude
Unknown
Longitude
Unknown
Altitude
Unknown
Speed
Unknown
Apparent Right ascension
Unknown
Apparent Declination
Unknown
Sunlit
N/A
Visualization observer readout
Local Sidereal Time
16:20:39
Azimuth
Unknown
Elevation
Unknown
Doppler factor
Unknown
Orbital elements
Apogee altitude
588.281 km
Perigee altitude
547.728 km
Semi-major axis
6,946.141 km
Eccentricity
0.00292
Inclination
73.8902°
RAAN
138.8975°
Arg. of periapsis
67.9854°
True anomaly
292.1332°
Mean anomaly
292.4428°
Eccentric anomaly
292.28804°
Mean motion
3.74911 °/min
Orbital period
96.02 mins
BSTAR
0.0012167
Loading maneuver chart data...
Computing Atmospheric mass density...

Documentation

Showing up to 5 results
|